Regional Weather Roundup
Issued by NWS Midland/Odessa, TX

Skip options and go directly to product.
Home | Oldest Version | Next Version | Current Version | All | Text Only | Save Text | Print | Product List | Glossary On

Skip product version selection by date and time.   
747
ASUS44 KMAF 200601
RWRMAF
MIDLAND AREA WEATHER ROUNDUP
NATIONAL WEATHER SERVICE MIDLAND TX
1200 AM CST SAT DEC 20 2014

...IN SOUTHWEST TEXAS AND SOUTHEAST NEW MEXICO...

CITY           SKY/WX    TMP DP  RH WIND       PRES   REMARKS
ALPINE         CLEAR     33  27  78 SW6       30.23S WCI  27
ANDREWS        FAIR      33  33 100 SE6       30.18R FOG     WCI  28
ARTESIA        CLEAR     37  28  70 VRB5      30.16R WCI  34
BIG SPRING     CLEAR     38  35  89 CALM      30.20S
CARLSBAD       CLEAR     36  25  64 W6        30.13S WCI  31
DRYDEN           N/A     47  39  74 N9        30.16R
FORT STOCKTON  CLEAR     41  32  70 S7        30.16S WCI  36
GUAD PASS      NOT AVBL
HOBBS          PTCLDY    32  32 100 CALM      30.17R FOG
MARFA          PTCLDY    27  21  80 NW7       30.19S WCI  19
MIDLAND AIRPK  CLEAR     39  36  89 E3        30.19S
MIDLAND INTL   CLEAR     37  35  92 E6        30.17S FOG     WCI  32
ODESSA         CLEAR     36  33  89 E5        30.17S FOG     WCI  32
PECOS          CLEAR     39  31  72 NE8       30.16S WCI  33
PRESIDIO       FAIR      47  31  52 N7        30.14S
SEMINOLE       MOCLDY    32  32  99 CALM      30.18R FOG
SNYDER         CLOUDY    42  38  85 E3        30.20R
WINK           CLEAR     37  30  75 SW3       30.16R
$$
...OTHER STATIONS IN TEXAS...

CITY           SKY/WX    TMP DP  RH WIND       PRES   REMARKS
ABILENE        CLOUDY    44  41  89 S3        30.21S
AMARILLO       PTCLDY    35  33  92 S9        30.14S WCI  28
AUSTIN         CLOUDY    50  44  80 N10       30.19S
BROWNSVILLE    CLOUDY    61  57  87 N9        30.09S
CORPUS CHRISTI CLOUDY    57  52  83 N15       30.13R
DALLAS FTW     CLOUDY    47  43  86 N6        30.21F
DEL RIO        CLOUDY    56  51  84 NE6       30.15S
EL PASO        PTCLDY    36  27  69 NE5       30.17S WCI  32
HOUSTON INT    CLOUDY    52  50  93 N9        30.14S
LUBBOCK        CLOUDY    38  36  92 S8        30.15S WCI  32
SAN ANGELO     MOCLDY    45  39  79 N5        30.19S
SAN ANTONIO    CLOUDY    51  45  79 NE8       30.17R
WACO           CLOUDY    48  45  89 N7        30.21S
WICHITA FALLS  NOT AVBL
$$
...OTHER LOCATIONS IN NEW MEXICO...

CITY           SKY/WX    TMP DP  RH WIND       PRES   REMARKS
ALAMAGORDO     CLEAR     32  27  80 CALM      30.17S
ALBUQUERQUE    PTCLDY    34  24  67 N7        30.21R WCI  28
CANNON AFB     CLOUDY    29  28  99 S5        30.13S FOG     WCI  23
CLOVIS         CLOUDY    30  28  93 S7        30.13S VSB 1/4 WCI  23
HOLLOMAN AFB   CLEAR     30  27  88 NE5       30.16S WCI  25
ROSWELL        CLEAR     34  21  59 CALM      30.14S
RUIDOSO        PTCLDY    32  10  40 W6        30.17F WCI  26
SANTA FE       PTCLDY    26  18  71 NW6       30.16R WCI  19
TRUTH OR CONSE CLEAR     32  24  72 CALM      30.18R
TUCUMCARI      CLEAR     31  28  89 S7        30.09S WCI  24
$$

USA.gov is the U.S. government's official web portal to all federal, state and local government web resources and services.